TELKOM 3S

导读

TELKOM 3S是由印度尼西亚电信运营商PT Telekomunikasi Indonesia Tbk运营的通信卫星,由法国泰雷兹集团基于Spacebus-4000B2平台制造。该卫星于2017年2月14日在法属圭亚那航天中心由阿丽亚娜5号ECA火箭发射升空,定点于东经118°地球静止轨道,发射质量3550千克,设计寿命超15年,目前仍在服务中。卫星配置24个标准C波段、8个扩展C波段和10个Ku波段转发器,为区域提供通信广播服务。

Basic Information
目录编号:
41944
目录名称:
TELKOM 3S
国际标识:
2017-007A
轨道中心:
EARTH
卫星名称:
TELKOM 3S
卫星全名:
--
卫星状态:
在轨 (已飞行3414 天)
发射日期:
2017-02-14 UTC
国别 :
印度尼西亚 (ID)
星等 :
--
Orbit Information
数据来源 国际轨道数据 AOE轨道数据
星历时间 2026-06-20T18:34:39+0800
23小时前
查看轨道信息
2026-06-20T23:00:00+0800
19小时前
查看轨道信息
半长轴 42165.485km 42164.168km
偏心率 0.0002382 0.0002241
轨道倾角 0.016° 0.013°
近地点辐角 87.403° 89.967°
升交点赤经 4.551° 356.079°
平近点角 93.371° 165.802°
近地点 35777.304km 35776.582km
远地点 35797.392km 35795.48km
周期 1436.135分钟 1436.068分钟
每日圈数 1.002691 1.002738
Detailed Information
使用方式:
暂无
2D Orbit Map
3D Orbit Map
Orbit Altitude Analysis Chart
Orbit Inclination Analysis Chart
Orbit Comprehensive Analysis Chart
View Comprehensive Chart